Location: Abyssinia Baptist Church
(32.7840°N, 96.7578°W)
Time: 16:37:34
(UTC+00:00)

X-37B - Visible Passes

Search period start: 19 May 2022 00:00
Search period end: 29 May 2022 00:00
Orbit: 329 x 342 km, 45.0° (Epoch: 18 May)

Date Brightness Start Highest point End Pass type
(mag) Time Alt. Az. Time Alt. Az. Time Alt. Az.
19 May 3.1 01:52:25 10° N 01:53:16 11° NNE 01:54:06 10° NNE visible
19 May 2.5 03:26:28 10° NW 03:27:59 27° NNW 03:27:59 27° NNW visible
20 May 2.4 02:11:52 10° NNW 02:14:02 20° NNE 02:16:12 10° ENE visible
20 May 3.5 03:46:57 10° WNW 03:47:25 13° WNW 03:47:25 13° WNW visible
21 May 0.7 02:31:53 10° NW 02:34:38 50° NNE 02:35:40 30° E visible
22 May 1.0 02:52:23 10° WNW 02:55:02 40° SW 02:55:12 39° SSW visible
23 May 3.1 03:14:09 10° WSW 03:14:48 11° SW 03:14:48 11° SW visible
24 May 1.2 01:57:48 10° WNW 02:00:29 41° SW 02:03:08 10° SE visible
25 May 3.0 02:19:32 10° WSW 02:20:42 12° SW 02:21:52 10° SSW visible
